STARLINK-1304, 45376

Orbit data source: Space-Track

STARLINK-1304, 45376 is a payload satellite owned by SpaceX/Seattle (US) in LEO that was launched on Wed, 18 Mar 2020 UTC via an FALCON 9 launch vehicle from the Air Force Eastern Test Range (AFETR). Payload-class satellites include a variety of spacecraft equipped with specific instruments for various scientific and technological missions. These include communications satellites like Starlink; space stations such as the ISS; scientific satellites like the Hubble; Earth observation satellites from companies like Planet Labs, Umbra, and HawkEye 360; GPS; miniature CubeSats for education and research; and military/defense satellites.

Loading next visibility...
Identifier
45376, 2020-019S
Orbit
LEO
Country
Flag of USUS
Related business
Manufacturer
SpaceX/Seattle
Mission
Operational Commercial Communications
Bus & Motor
STARLINK, Unknown motor
Mass
260 kg wet, ~248 kg dry
Launch date (UTC)
2020-03-18 (6 years ago)
Launch vehicle
FALCON 9
Launch site
Air Force Eastern Test Range (AFETR)
Object type
Payload
Rocket body
Debris
Shape & HBR
Box + 1 Pan, 10.1 m
Radar Cross Section
13.562 m², Large (>1 m²)

Expand to show TLE details & history
Last TLE update: 8 hours ago

TLE from 8 hours ago
0 STARLINK-1304
1 45376U 20019S   25306.47554727  .00013849  00000-0  94684-3 0  9993
2 45376  53.0548  17.7032 0001335  96.2575 263.8566 15.06398833310554
Epoch: 2025-11-02T11:24Z
TLE epoch observation values (Epoch: 2025-11-02T11:24:47.284Z)
Latitude
-0.00001°
Longitude
164.51544°
Altitude
548.193 km
Speed
7.589 km/s
True Right ascension
01h 10m 48s
True Declination
0° 00' 00"
Sunlit
Object was in full shadow at epoch
Visualization orbit readout
Latitude
Unknown
Longitude
Unknown
Altitude
Unknown
Speed
Unknown
Apparent Right ascension
Unknown
Apparent Declination
Unknown
Sunlit
N/A
Visualization observer readout
Local Sidereal Time
15:19:37
Azimuth
Unknown
Elevation
Unknown
Doppler factor
Unknown
Orbital elements
Apogee altitude
548.41 km
Perigee altitude
546.561 km
Semi-major axis
6,925.623 km
Eccentricity
0.00013
Inclination
53.0548°
RAAN
17.7032°
Arg. of periapsis
96.2575°
True anomaly
263.84139°
Mean anomaly
263.8566°
Eccentric anomaly
263.849°
Mean motion
3.76578 °/min
Orbital period
95.6 mins
BSTAR
0.00094684
Loading maneuver chart data...
Computing Atmospheric mass density...
Loading historical data...
Loading historical data...
Loading historical data...
Loading historical data...
Loading historical data...
Loading historical data...
Loading historical data...

Documentation

Showing up to 5 results
|